Regional Weather Roundup
Issued by NWS

Home | Current Version | Previous Version | Graphics & Text | Print | Product List | Glossary On
Versions: 1 2 3 4 5 6 7 8 9 10 11 12 13 14 15 16 17 18 19 20 21 22 23 24 25 26 27 28 29 30 31 32 33 34 35 36 37 38 39 40 41 42 43 44 45 46 47 48 49 50
000
ASUS45 KBOI 311210
RWRID

IDAHO REGIONAL WEATHER ROUNDUP
NATIONAL WEATHER SERVICE BOISE ID
600 AM MDT FRI JUL 31 2015

NOTE: "FAIR" INDICATES FEW OR NO CLOUDS BELOW 12000 FEET
WITH NO SIGNIFICANT WEATHER AND/OR OBSTRUCTIONS TO VISIBILITY

IDZ012-014-311300-
SOUTHWEST IDAHO


CITY           SKY/WX    TMP DP  RH WIND       PRES   REMARKS
BOISE          CLEAR     67  37  33 SE8       30.13S
CALDWELL       CLEAR     54  39  58 CALM      30.14S
MOUNTAIN HOME  CLEAR     57  30  35 E7        30.15R
$$

IDZ016-017-311300-
SOUTHCENTRAL IDAHO


CITY           SKY/WX    TMP DP  RH WIND       PRES   REMARKS
BURLEY         PTCLDY    50  40  68 CALM      30.23R
JEROME         CLEAR     53  35  50 NE10      30.22S
TWIN FALLS     CLEAR     64  26  23 S8        30.20S
$$

IDZ019>023-311300-
SOUTHEAST IDAHO


CITY           SKY/WX    TMP DP  RH WIND       PRES   REMARKS
IDAHO FALLS    CLEAR     44  41  89 N5        30.29S
POCATELLO      CLEAR     50  37  61 CALM      30.28R
REXBURG        CLEAR     48  42  80 NE3       30.31S
$$

IDZ006-010-011-018-031-032-311300-
CENTRAL IDAHO MOUNTAINS


CITY           SKY/WX    TMP DP  RH WIND       PRES   REMARKS
MCCALL         CLEAR     48  38  68 NE5       30.29F
HAILEY         CLEAR     54  34  47 NW12      30.34S
STANLEY          N/A     36  30  79 CALM      30.46R
SALMON         CLEAR     50  43  76 CALM      30.29S
CHALLIS        CLEAR     51  40  65 CALM      30.35R
$$

IDZ002-004-006-007-026-311300-
NORTHERN IDAHO


CITY           SKY/WX    TMP DP  RH WIND       PRES   REMARKS
LEWISTON       CLOUDY    67  40  37 E5        30.07R
LOWELL           N/A     55  49  80 NW3       30.19R
COEUR D`ALENE  CLEAR     55  39  54 E3        30.12S
MULLAN PASS    PTCLDY    67  28  23 S5        30.36R
$$


USA.gov is the U.S. government's official web portal to all federal, state and local government web resources and services.